| time (UTC) | temp C | wind direction | speed KPH | gust KPH | rain 1hr cm | rain 24hr cm | rain mn cm | humidity % | barometer mb |
| 20260901174549 | 25 | 355 | 27.4 | 35.4 | 0.00 | 0.00 | 0.00 | 30 | 1003.4 |
| 20260901173045 | 25 | 355 | 20.9 | 32.2 | 0.00 | 0.00 | 0.00 | 31 | 1003.4 |
| 20260901171541 | 24 | 355 | 17.7 | 30.6 | 0.00 | 0.00 | 0.00 | 31 | 1003.4 |
| 20260901170028 | 23 | 355 | 12.9 | 22.5 | 0.00 | 0.00 | 0.00 | 35 | 1003.4 |
| 20260901164608 | 22 | 355 | 12.9 | 19.3 | 0.00 | 0.00 | 0.00 | 37 | 1003.4 |
| 20260901163016 | 21 | 355 | 9.7 | 17.7 | 0.00 | 0.00 | 0.00 | 37 | 1003.4 |
| 20260901161530 | 19 | 355 | 6.4 | 12.9 | 0.00 | 0.00 | 0.00 | 44 | 1003.4 |
| 20260901160037 | 17 | 355 | 3.2 | 9.7 | 0.00 | 0.00 | 0.00 | 52 | 1003.4 |
| 20260901154520 | 15 | 355 | 0.0 | 0.0 | 0.00 | 0.00 | 0.00 | 58 | 1003.4 |
| 20260901153026 | 13 | 355 | 0.0 | 0.0 | 0.00 | 0.00 | 0.00 | 60 | 1003.4 |
| 20260901151604 | 12 | 355 | 0.0 | 0.0 | 0.00 | 0.00 | 0.00 | 65 | 1003.4 |
| 20260901150039 | 11 | 355 | 0.0 | 0.0 | 0.00 | 0.00 | 0.00 | 65 | 1003.4 |
| 20260901144559 | 11 | 355 | 0.0 | 0.0 | 0.00 | 0.00 | 0.00 | 68 | 1003.4 |
| 20260901143121 | 11 | 355 | 0.0 | 0.0 | 0.00 | 0.00 | 0.00 | 68 | 1003.4 |
| 20260901141547 | 10 | 355 | 0.0 | 0.0 | 0.00 | 0.00 | 0.00 | 67 | 1003.4 |
| 20260901140013 | 9 | 355 | 0.0 | 0.0 | 0.00 | 0.00 | 0.00 | 68 | 1003.4 |
| 20260901134549 | 9 | 355 | 0.0 | 0.0 | 0.00 | 0.00 | 0.00 | 65 | 1003.4 |
| 20260901133055 | 9 | 355 | 0.0 | 0.0 | 0.00 | 0.00 | 0.00 | 65 | 1003.4 |
| 20260901131508 | 8 | 355 | 0.0 | 0.0 | 0.00 | 0.00 | 0.00 | 65 | 1003.4 |
| 20260901130048 | 8 | 355 | 0.0 | 0.0 | 0.00 | 0.00 | 0.00 | 65 | 1003.4 |
| 20260901124521 | 8 | 355 | 0.0 | 0.0 | 0.00 | 0.00 | 0.00 | 68 | 1003.4 |
| 20260901123053 | 9 | 355 | 0.0 | 0.0 | 0.00 | 0.00 | 0.00 | 66 | 1003.4 |
| 20260901121538 | 8 | 355 | 0.0 | 0.0 | 0.00 | 0.00 | 0.00 | 66 | 1003.4 |
| 20260901120013 | 8 | 355 | 0.0 | 0.0 | 0.00 | 0.00 | 0.00 | 64 | 1003.4 |
| 20260901114556 | 8 | 355 | 0.0 | 0.0 | 0.00 | 0.00 | 0.00 | 64 | 1003.4 |
| 20260901113054 | 8 | 355 | 0.0 | 0.0 | 0.00 | 0.00 | 0.00 | 62 | 1003.4 |
| 20260901111608 | 9 | 355 | 0.0 | 0.0 | 0.00 | 0.00 | 0.00 | 61 | 1003.4 |
| 20260901110113 | 9 | 355 | 0.0 | 0.0 | 0.00 | 0.00 | 0.00 | 61 | 1003.4 |
| 20260901104559 | 9 | 355 | 0.0 | 0.0 | 0.00 | 0.00 | 0.00 | 62 | 1003.4 |
| 20260901103050 | 9 | 355 | 0.0 | 0.0 | 0.00 | 0.00 | 0.00 | 66 | 1003.4 |
| 20260901101602 | 9 | 355 | 0.0 | 0.0 | 0.00 | 0.00 | 0.00 | 68 | 1003.4 |
| 20260901100002 | 9 | 355 | 0.0 | 3.2 | 0.00 | 0.00 | 0.00 | 62 | 1003.4 |
| 20260901094602 | 10 | 355 | 3.2 | 6.4 | 0.00 | 0.00 | 0.00 | 59 | 1003.4 |
| 20260901093002 | 10 | 355 | 0.0 | 0.0 | 0.00 | 0.00 | 0.00 | 56 | 1003.4 |
| 20260901091517 | 11 | 355 | 0.0 | 4.8 | 0.00 | 0.00 | 0.00 | 57 | 1003.4 |
| 20260901090032 | 11 | 355 | 0.0 | 0.0 | 0.00 | 0.00 | 0.00 | 57 | 1003.4 |
| 20260901084542 | 11 | 355 | 0.0 | 0.0 | 0.00 | 0.00 | 0.00 | 57 | 1003.4 |
| 20260901083032 | 11 | 355 | 0.0 | 0.0 | 0.00 | 0.00 | 0.00 | 59 | 1003.4 |
| 20260901081517 | 11 | 355 | 0.0 | 0.0 | 0.00 | 0.00 | 0.00 | 61 | 1003.4 |
| 20260901080008 | 11 | 355 | 1.6 | 4.8 | 0.00 | 0.00 | 0.00 | 55 | 1003.4 |
| 20260901074605 | 12 | 355 | 1.6 | 6.4 | 0.00 | 0.00 | 0.00 | 54 | 1003.4 |
| 20260901073004 | 11 | 355 | 4.8 | 9.7 | 0.00 | 0.00 | 0.00 | 56 | 1003.4 |
| 20260901071510 | 11 | 355 | 0.0 | 1.6 | 0.00 | 0.00 | 0.00 | 61 | 1003.4 |
| 20260901070011 | 11 | 355 | 3.2 | 6.4 | 0.00 | 0.00 | 0.00 | 65 | 1003.4 |
| 20260901064502 | 12 | 355 | 4.8 | 8.0 | 0.00 | 0.00 | 0.00 | 61 | 1003.4 |
| 20260901063032 | 13 | 355 | 3.2 | 6.4 | 0.00 | 0.00 | 0.00 | 51 | 1003.4 |
| 20260901061528 | 13 | 355 | 0.0 | 3.2 | 0.00 | 0.00 | 0.00 | 48 | 1003.4 |
| 20260901060059 | 13 | 355 | 3.2 | 8.0 | 0.00 | 0.00 | 0.00 | 47 | 1003.4 |
| 20260901054611 | 14 | 355 | 1.6 | 4.8 | 0.00 | 0.00 | 0.00 | 45 | 1003.4 |
| 20260901053024 | 15 | 355 | 0.0 | 0.0 | 0.00 | 0.00 | 0.00 | 44 | 1003.4 |
| 20260901051545 | 15 | 355 | 3.2 | 6.4 | 0.00 | 0.00 | 0.00 | 42 | 1003.4 |
| 20260901050005 | 16 | 355 | 3.2 | 6.4 | 0.00 | 0.00 | 0.00 | 41 | 1003.4 |
| 20260901044508 | 16 | 355 | 0.0 | 0.0 | 0.00 | 0.00 | 0.00 | 41 | 1003.4 |
| 20260901043106 | 17 | 355 | 3.2 | 6.4 | 0.00 | 0.00 | 0.00 | 44 | 1003.4 |
| 20260901041555 | 17 | 355 | 3.2 | 4.8 | 0.00 | 0.00 | 0.00 | 43 | 1003.4 |
| 20260901040003 | 18 | 355 | 0.0 | 0.0 | 0.00 | 0.00 | 0.00 | 37 | 1003.4 |
| 20260901034607 | 19 | 355 | 0.0 | 0.0 | 0.00 | 0.00 | 0.00 | 33 | 1003.4 |
| 20260901033048 | 19 | 355 | 0.0 | 0.0 | 0.00 | 0.00 | 0.00 | 34 | 1003.4 |
| 20260901031558 | 20 | 355 | 0.0 | 0.0 | 0.00 | 0.00 | 0.00 | 33 | 1003.4 |
| 20260901030054 | 20 | 355 | 0.0 | 0.0 | 0.00 | 0.00 | 0.00 | 31 | 1003.4 |
| 20260901024606 | 21 | 355 | 0.0 | 0.0 | 0.00 | 0.00 | 0.00 | 31 | 1003.4 |
| 20260901023057 | 22 | 355 | 0.0 | 0.0 | 0.00 | 0.00 | 0.00 | 29 | 1003.4 |
| 20260901021626 | 22 | 355 | 0.0 | 4.8 | 0.00 | 0.00 | 0.00 | 28 | 1003.4 |
| 20260901020003 | 23 | 355 | 4.8 | 9.7 | 0.00 | 0.00 | 0.00 | 26 | 1003.4 |
| 20260901014539 | 23 | 355 | 4.8 | 9.7 | 0.00 | 0.00 | 0.00 | 26 | 1003.4 |
| 20260901013031 | 24 | 355 | 4.8 | 12.9 | 0.00 | 0.00 | 0.00 | 25 | 1003.4 |
| 20260901011521 | 25 | 355 | 11.3 | 17.7 | 0.00 | 0.00 | 0.00 | 23 | 1003.4 |
| 20260901010035 | 25 | 355 | 14.5 | 20.9 | 0.00 | 0.00 | 0.00 | 22 | 1003.4 |
| 20260901004529 | 25 | 355 | 16.1 | 22.5 | 0.00 | 0.00 | 0.00 | 21 | 1003.4 |
| 20260901003042 | 26 | 355 | 16.1 | 25.7 | 0.00 | 0.00 | 0.00 | 21 | 1003.4 |
| 20260901001555 | 26 | 355 | 14.5 | 22.5 | 0.00 | 0.00 | 0.00 | 21 | 1003.4 |
| 20260831234516 | 26 | 355 | 16.1 | 27.4 | 0.00 | 0.00 | 0.00 | 21 | 1003.4 |
| 20260831233008 | 26 | 355 | 19.3 | 27.4 | 0.00 | 0.00 | 0.00 | 20 | 1003.4 |
| 20260831231551 | 26 | 355 | 16.1 | 25.7 | 0.00 | 0.00 | 0.00 | 20 | 1003.4 |
| 20260831230056 | 26 | 355 | 20.9 | 33.8 | 0.00 | 0.00 | 0.00 | 21 | 1003.4 |
| 20260831224554 | 26 | 355 | 22.5 | 37.0 | 0.00 | 0.00 | 0.00 | 21 | 1003.4 |
| 20260831223054 | 25 | 355 | 24.1 | 35.4 | 0.00 | 0.00 | 0.00 | 22 | 1003.4 |
| 20260831221517 | 25 | 355 | 25.7 | 38.6 | 0.00 | 0.00 | 0.00 | 22 | 1003.4 |
| 20260831220047 | 25 | 355 | 25.7 | 41.8 | 0.00 | 0.00 | 0.00 | 22 | 1003.4 |
| 20260831214505 | 25 | 355 | 24.1 | 37.0 | 0.00 | 0.00 | 0.00 | 23 | 1003.4 |
| 20260831213029 | 25 | 355 | 27.4 | 37.0 | 0.00 | 0.00 | 0.00 | 22 | 1003.4 |
| 20260831211618 | 25 | 355 | 20.9 | 33.8 | 0.00 | 0.00 | 0.00 | 23 | 1003.4 |
| 20260831210130 | 25 | 355 | 19.3 | 30.6 | 0.00 | 0.00 | 0.00 | 23 | 1003.4 |
| 20260831204508 | 25 | 355 | 17.7 | 25.7 | 0.00 | 0.00 | 0.00 | 24 | 1003.4 |
| 20260831203015 | 24 | 355 | 17.7 | 29.0 | 0.00 | 0.00 | 0.00 | 24 | 1003.4 |
| 20260831201533 | 24 | 355 | 20.9 | 32.2 | 0.00 | 0.00 | 0.00 | 24 | 1003.4 |
| 20260831200100 | 23 | 355 | 25.7 | 35.4 | 0.00 | 0.00 | 0.00 | 24 | 1003.4 |
| 20260831194512 | 23 | 355 | 17.7 | 32.2 | 0.00 | 0.00 | 0.00 | 25 | 1003.4 |
| 20260831193023 | 23 | 355 | 22.5 | 33.8 | 0.00 | 0.00 | 0.00 | 25 | 1003.4 |
| 20260831191525 | 22 | 355 | 22.5 | 33.8 | 0.00 | 0.00 | 0.00 | 27 | 1003.4 |
| 20260831190046 | 22 | 355 | 22.5 | 30.6 | 0.00 | 0.00 | 0.00 | 27 | 1003.4 |
| 20260831184606 | 22 | 355 | 17.7 | 30.6 | 0.00 | 0.00 | 0.00 | 27 | 1003.4 |
| 20260831183024 | 21 | 355 | 20.9 | 30.6 | 0.00 | 0.00 | 0.00 | 27 | 1003.4 |
| 20260831180135 | 21 | 355 | 19.3 | 29.0 | 0.00 | 0.00 | 0.00 | 28 | 1003.4 |